TimeMST,TemperatureF,Dew PointF,Humidity,Sea Level PressureIn,VisibilityMPH,Wind Direction,Wind SpeedMPH,Gust SpeedMPH,PrecipitationIn,Events,Conditions,WindDirDegrees,DateUTC
12:53 AM,32.0,30.0,92,29.91,10.0,Calm,Calm,-,N/A,,Clear,0,2013-03-03 07:53:00
1:53 AM,33.1,30.0,89,29.91,10.0,Calm,Calm,-,N/A,,Clear,0,2013-03-03 08:53:00
2:53 AM,30.0,28.0,92,29.87,10.0,Calm,Calm,-,N/A,,Clear,0,2013-03-03 09:53:00
3:53 AM,32.0,28.9,88,29.86,10.0,SE,4.6,-,N/A,,Clear,140,2013-03-03 10:53:00
4:53 AM,33.1,30.0,89,29.83,10.0,South,8.1,-,N/A,,Clear,170,2013-03-03 11:53:00
5:53 AM,33.1,30.0,89,29.82,10.0,Calm,Calm,-,N/A,,Partly Cloudy,0,2013-03-03 12:53:00
6:53 AM,28.9,27.0,92,29.82,10.0,West,5.8,-,N/A,,Mostly Cloudy,270,2013-03-03 13:53:00
7:53 AM,30.9,28.9,92,29.81,10.0,Calm,Calm,-,N/A,,Partly Cloudy,0,2013-03-03 14:53:00
8:53 AM,35.1,30.9,85,29.76,10.0,Calm,Calm,-,N/A,,Overcast,0,2013-03-03 15:53:00
9:53 AM,36.0,32.0,86,29.75,10.0,SW,5.8,-,N/A,,Partly Cloudy,220,2013-03-03 16:53:00
10:53 AM,39.9,30.9,70,29.70,10.0,WSW,6.9,-,N/A,,Clear,240,2013-03-03 17:53:00
11:53 AM,45.0,32.0,60,29.67,10.0,Calm,Calm,-,N/A,,Clear,0,2013-03-03 18:53:00
12:53 PM,48.9,32.0,52,29.60,10.0,NE,3.5,-,N/A,,Scattered Clouds,40,2013-03-03 19:53:00
1:53 PM,46.0,34.0,63,29.58,10.0,NE,5.8,-,N/A,,Scattered Clouds,40,2013-03-03 20:53:00
2:53 PM,48.9,34.0,56,29.55,10.0,East,6.9,-,N/A,,Mostly Cloudy,90,2013-03-03 21:53:00
3:53 PM,48.9,32.0,52,29.54,10.0,ENE,8.1,-,N/A,,Partly Cloudy,70,2013-03-03 22:53:00
4:53 PM,48.0,33.1,56,29.53,10.0,ESE,6.9,-,N/A,,Clear,110,2013-03-03 23:53:00
5:53 PM,46.0,33.1,61,29.56,10.0,NW,5.8,-,N/A,,Partly Cloudy,320,2013-03-04 00:53:00
6:53 PM,34.0,26.1,73,29.71,10.0,North,11.5,19.6,N/A,,Clear,10,2013-03-04 01:53:00
8:53 PM,30.0,21.9,72,29.82,10.0,NNW,34.5,47.2,N/A,,Scattered Clouds,340,2013-03-04 03:53:00
9:53 PM,30.9,21.9,69,29.86,10.0,NNW,11.5,-,N/A,,Overcast,340,2013-03-04 04:53:00
10:53 PM,32.0,18.0,56,29.89,10.0,Variable,4.6,-,N/A,,Overcast,0,2013-03-04 05:53:00
11:53 PM,30.9,19.0,61,29.88,10.0,Calm,Calm,-,N/A,,Overcast,0,2013-03-04 06:53:00